| time (UTC) | temp C | wind direction | speed KPH | gust KPH | rain 1hr cm | rain 24hr cm | rain mn cm | humidity % | barometer mb |
| 20260903223502 | 33 | 240 | 3.2 | 8.0 | 0.00 | 0.00 | 0.00 | 54 | 1014.6 |
| 20260903223008 | 33 | 211 | 3.2 | 14.5 | 0.00 | 0.00 | 0.00 | 52 | 1014.5 |
| 20260903222503 | 33 | 315 | 1.6 | 14.5 | 0.00 | 0.00 | 0.00 | 53 | 1014.5 |
| 20260903222004 | 33 | 215 | 3.2 | 14.5 | 0.00 | 0.00 | 0.00 | 54 | 1014.5 |
| 20260903221512 | 33 | 211 | 3.2 | 14.5 | 0.00 | 0.00 | 0.00 | 53 | 1014.5 |
| 20260903221004 | 33 | 230 | 6.4 | 12.9 | 0.00 | 0.00 | 0.00 | 52 | 1014.6 |
| 20260903220505 | 33 | 215 | 4.8 | 11.3 | 0.00 | 0.00 | 0.00 | 53 | 1014.5 |
| 20260903220009 | 33 | 329 | 3.2 | 12.9 | 0.00 | 0.00 | 0.00 | 52 | 1014.4 |
| 20260903215504 | 33 | 313 | 3.2 | 12.9 | 0.00 | 0.00 | 0.00 | 52 | 1014.4 |
| 20260903215006 | 33 | 274 | 4.8 | 14.5 | 0.00 | 0.00 | 0.00 | 53 | 1014.4 |
| 20260903214506 | 34 | 306 | 6.4 | 14.5 | 0.00 | 0.00 | 0.00 | 51 | 1014.3 |
| 20260903214003 | 34 | 320 | 4.8 | 12.9 | 0.00 | 0.00 | 0.00 | 51 | 1014.3 |
| 20260903213503 | 34 | 305 | 4.8 | 12.9 | 0.00 | 0.00 | 0.00 | 51 | 1014.2 |
| 20260903213018 | 34 | 232 | 3.2 | 16.1 | 0.00 | 0.00 | 0.00 | 52 | 1014.1 |
| 20260903212503 | 34 | 216 | 4.8 | 20.9 | 0.00 | 0.00 | 0.00 | 52 | 1014.2 |
| 20260903212003 | 34 | 308 | 6.4 | 14.5 | 0.00 | 0.00 | 0.00 | 49 | 1014.3 |
| 20260903211508 | 34 | 208 | 6.4 | 14.5 | 0.00 | 0.00 | 0.00 | 50 | 1014.2 |
| 20260903211005 | 34 | 218 | 3.2 | 12.9 | 0.00 | 0.00 | 0.00 | 51 | 1014.2 |
| 20260903210504 | 34 | 184 | 4.8 | 12.9 | 0.00 | 0.00 | 0.00 | 52 | 1014.2 |
| 20260903210014 | 34 | 267 | 6.4 | 12.9 | 0.00 | 0.00 | 0.00 | 51 | 1014.2 |
| 20260903205503 | 34 | 242 | 4.8 | 16.1 | 0.00 | 0.00 | 0.00 | 52 | 1014.2 |
| 20260903205003 | 34 | 219 | 6.4 | 17.7 | 0.00 | 0.00 | 0.00 | 50 | 1014.3 |
| 20260903204509 | 34 | 318 | 4.8 | 17.7 | 0.00 | 0.00 | 0.00 | 50 | 1014.3 |
| 20260903204003 | 34 | 268 | 6.4 | 14.5 | 0.00 | 0.00 | 0.00 | 52 | 1014.2 |
| 20260903203507 | 34 | 5 | 4.8 | 12.9 | 0.00 | 0.00 | 0.00 | 50 | 1014.1 |
| 20260903203019 | 34 | 9 | 6.4 | 16.1 | 0.00 | 0.00 | 0.00 | 51 | 1014.1 |
| 20260903202504 | 34 | 205 | 9.7 | 16.1 | 0.00 | 0.00 | 0.00 | 53 | 1014.1 |
| 20260903202003 | 34 | 192 | 8.0 | 16.1 | 0.00 | 0.00 | 0.00 | 51 | 1014.1 |
| 20260903201507 | 34 | 222 | 4.8 | 16.1 | 0.00 | 0.00 | 0.00 | 52 | 1014.2 |
| 20260903201002 | 34 | 288 | 6.4 | 16.1 | 0.00 | 0.00 | 0.00 | 51 | 1014.2 |
| 20260903200504 | 34 | 331 | 6.4 | 16.1 | 0.00 | 0.00 | 0.00 | 52 | 1014.3 |
| 20260903200015 | 34 | 189 | 4.8 | 12.9 | 0.00 | 0.00 | 0.00 | 53 | 1014.5 |
| 20260903195504 | 34 | 218 | 4.8 | 12.9 | 0.00 | 0.00 | 0.00 | 52 | 1014.6 |
| 20260903195003 | 33 | 31 | 4.8 | 11.3 | 0.00 | 0.00 | 0.00 | 53 | 1014.7 |
| 20260903194532 | 33 | 350 | 6.4 | 11.3 | 0.00 | 0.00 | 0.00 | 55 | 1014.8 |
| 20260903194008 | 33 | 221 | 6.4 | 11.3 | 0.00 | 0.00 | 0.00 | 54 | 1014.9 |
| 20260903193503 | 34 | 210 | 4.8 | 12.9 | 0.00 | 0.00 | 0.00 | 53 | 1015.2 |
| 20260903193010 | 34 | 298 | 4.8 | 17.7 | 0.00 | 0.00 | 0.00 | 55 | 1015.2 |
| 20260903192505 | 34 | 208 | 6.4 | 17.7 | 0.00 | 0.00 | 0.00 | 52 | 1015.3 |
| 20260903192003 | 33 | 205 | 4.8 | 12.9 | 0.00 | 0.00 | 0.00 | 53 | 1015.5 |
| 20260903191512 | 33 | 298 | 8.0 | 12.9 | 0.00 | 0.00 | 0.00 | 53 | 1015.6 |
| 20260903191005 | 33 | 300 | 4.8 | 14.5 | 0.00 | 0.00 | 0.00 | 53 | 1015.6 |
| 20260903190503 | 33 | 306 | 4.8 | 14.5 | 0.00 | 0.00 | 0.00 | 53 | 1015.7 |
| 20260903190011 | 33 | 215 | 6.4 | 14.5 | 0.00 | 0.00 | 0.00 | 52 | 1015.7 |
| 20260903185508 | 33 | 311 | 6.4 | 14.5 | 0.00 | 0.00 | 0.00 | 54 | 1015.8 |
| 20260903185007 | 33 | 281 | 6.4 | 14.5 | 0.00 | 0.00 | 0.00 | 55 | 1015.8 |
| 20260903184513 | 33 | 296 | 4.8 | 12.9 | 0.00 | 0.00 | 0.00 | 55 | 1015.8 |
| 20260903184003 | 33 | 199 | 3.2 | 12.9 | 0.00 | 0.00 | 0.00 | 54 | 1015.9 |
| 20260903183505 | 33 | 227 | 4.8 | 12.9 | 0.00 | 0.00 | 0.00 | 54 | 1015.9 |
| 20260903183018 | 33 | 174 | 6.4 | 16.1 | 0.00 | 0.00 | 0.00 | 55 | 1015.9 |
| 20260903182508 | 33 | 230 | 4.8 | 16.1 | 0.00 | 0.00 | 0.00 | 54 | 1015.9 |
| 20260903182008 | 33 | 210 | 6.4 | 14.5 | 0.00 | 0.00 | 0.00 | 56 | 1015.9 |
| 20260903181511 | 33 | 311 | 4.8 | 12.9 | 0.00 | 0.00 | 0.00 | 56 | 1015.9 |
| 20260903181007 | 33 | 209 | 6.4 | 12.9 | 0.00 | 0.00 | 0.00 | 55 | 1015.9 |
| 20260903180506 | 33 | 201 | 4.8 | 11.3 | 0.00 | 0.00 | 0.00 | 58 | 1016.0 |
| 20260903180029 | 33 | 338 | 3.2 | 12.9 | 0.00 | 0.00 | 0.00 | 60 | 1015.9 |
| 20260903175507 | 33 | 214 | 4.8 | 12.9 | 0.00 | 0.00 | 0.00 | 58 | 1016.0 |
| 20260903175007 | 33 | 219 | 3.2 | 12.9 | 0.00 | 0.00 | 0.00 | 59 | 1016.0 |
| 20260903174515 | 33 | 183 | 6.4 | 12.9 | 0.00 | 0.00 | 0.00 | 58 | 1016.1 |
| 20260903174007 | 33 | 224 | 4.8 | 11.3 | 0.00 | 0.00 | 0.00 | 58 | 1016.1 |
| 20260903173507 | 33 | 226 | 4.8 | 11.3 | 0.00 | 0.00 | 0.00 | 57 | 1016.1 |
| 20260903173014 | 33 | 201 | 4.8 | 11.3 | 0.00 | 0.00 | 0.00 | 58 | 1016.2 |
| 20260903172506 | 32 | 212 | 4.8 | 12.9 | 0.00 | 0.00 | 0.00 | 60 | 1016.2 |
| 20260903172006 | 32 | 248 | 3.2 | 12.9 | 0.00 | 0.00 | 0.00 | 59 | 1016.2 |
| 20260903171516 | 32 | 210 | 4.8 | 14.5 | 0.00 | 0.00 | 0.00 | 59 | 1016.3 |
| 20260903171007 | 32 | 313 | 3.2 | 14.5 | 0.00 | 0.00 | 0.00 | 59 | 1016.3 |
| 20260903170507 | 32 | 239 | 3.2 | 12.9 | 0.00 | 0.00 | 0.00 | 59 | 1016.4 |
| 20260903170013 | 32 | 210 | 4.8 | 12.9 | 0.00 | 0.00 | 0.00 | 60 | 1016.5 |
| 20260903165506 | 32 | 200 | 4.8 | 11.3 | 0.00 | 0.00 | 0.00 | 58 | 1016.5 |
| 20260903165014 | 32 | 259 | 4.8 | 11.3 | 0.00 | 0.00 | 0.00 | 59 | 1016.6 |
| 20260903164514 | 32 | 215 | 4.8 | 11.3 | 0.00 | 0.00 | 0.00 | 60 | 1016.6 |
| 20260903164008 | 32 | 219 | 3.2 | 16.1 | 0.00 | 0.00 | 0.00 | 61 | 1016.6 |
| 20260903163506 | 32 | 200 | 3.2 | 16.1 | 0.00 | 0.00 | 0.00 | 61 | 1016.6 |
| 20260903163023 | 32 | 296 | 4.8 | 16.1 | 0.00 | 0.00 | 0.00 | 59 | 1016.7 |
| 20260903162507 | 32 | 246 | 6.4 | 16.1 | 0.00 | 0.00 | 0.00 | 61 | 1016.7 |
| 20260903162010 | 32 | 203 | 6.4 | 12.9 | 0.00 | 0.00 | 0.00 | 61 | 1016.8 |
| 20260903161515 | 32 | 273 | 4.8 | 11.3 | 0.00 | 0.00 | 0.00 | 61 | 1016.9 |
| 20260903161007 | 31 | 288 | 4.8 | 11.3 | 0.00 | 0.00 | 0.00 | 62 | 1017.0 |
| 20260903160512 | 31 | 211 | 4.8 | 11.3 | 0.00 | 0.00 | 0.00 | 62 | 1016.9 |
| 20260903160016 | 31 | 297 | 3.2 | 9.7 | 0.00 | 0.00 | 0.00 | 63 | 1016.9 |
| 20260903155509 | 31 | 207 | 3.2 | 12.9 | 0.00 | 0.00 | 0.00 | 63 | 1017.0 |
| 20260903155006 | 31 | 244 | 6.4 | 12.9 | 0.00 | 0.00 | 0.00 | 63 | 1017.1 |
| 20260903154518 | 31 | 210 | 6.4 | 11.3 | 0.00 | 0.00 | 0.00 | 62 | 1017.0 |
| 20260903154007 | 31 | 243 | 3.2 | 11.3 | 0.00 | 0.00 | 0.00 | 65 | 1016.9 |
| 20260903153508 | 31 | 320 | 3.2 | 12.9 | 0.00 | 0.00 | 0.00 | 64 | 1016.9 |
| 20260903153020 | 30 | 230 | 6.4 | 12.9 | 0.00 | 0.00 | 0.00 | 63 | 1017.0 |
| 20260903152508 | 30 | 201 | 6.4 | 14.5 | 0.00 | 0.00 | 0.00 | 64 | 1017.0 |
| 20260903152008 | 30 | 212 | 3.2 | 14.5 | 0.00 | 0.00 | 0.00 | 66 | 1017.0 |
| 20260903151525 | 30 | 217 | 4.8 | 12.9 | 0.00 | 0.00 | 0.00 | 66 | 1016.9 |
| 20260903151009 | 30 | 225 | 4.8 | 12.9 | 0.00 | 0.00 | 0.00 | 65 | 1016.8 |
| 20260903150510 | 30 | 288 | 4.8 | 12.9 | 0.00 | 0.00 | 0.00 | 66 | 1016.9 |
| 20260903150020 | 30 | 246 | 4.8 | 14.5 | 0.00 | 0.00 | 0.00 | 66 | 1016.8 |
| 20260903145511 | 30 | 207 | 4.8 | 14.5 | 0.00 | 0.00 | 0.00 | 67 | 1016.8 |
| 20260903145010 | 30 | 208 | 3.2 | 8.0 | 0.00 | 0.00 | 0.00 | 68 | 1016.8 |
| 20260903144519 | 30 | 237 | 4.8 | 14.5 | 0.00 | 0.00 | 0.00 | 67 | 1016.7 |
| 20260903144004 | 29 | 219 | 3.2 | 14.5 | 0.00 | 0.00 | 0.00 | 68 | 1016.7 |
| 20260903143508 | 29 | 236 | 4.8 | 11.3 | 0.00 | 0.00 | 0.00 | 70 | 1016.8 |
| 20260903143014 | 29 | 223 | 4.8 | 11.3 | 0.00 | 0.00 | 0.00 | 68 | 1016.7 |
| 20260903142506 | 29 | 243 | 3.2 | 9.7 | 0.00 | 0.00 | 0.00 | 70 | 1016.7 |
| 20260903142008 | 28 | 210 | 3.2 | 9.7 | 0.00 | 0.00 | 0.00 | 71 | 1016.6 |
| 20260903141522 | 28 | 229 | 4.8 | 9.7 | 0.00 | 0.00 | 0.00 | 71 | 1016.7 |
| 20260903141015 | 28 | 235 | 4.8 | 11.3 | 0.00 | 0.00 | 0.00 | 70 | 1016.8 |
| 20260903140502 | 28 | 179 | 4.8 | 11.3 | 0.00 | 0.00 | 0.00 | 70 | 1016.7 |
| 20260903140003 | 28 | 209 | 4.8 | 9.7 | 0.00 | 0.00 | 0.00 | 70 | 1016.8 |
| 20260903135503 | 28 | 189 | 3.2 | 8.0 | 0.00 | 0.00 | 0.00 | 71 | 1016.8 |
| 20260903135003 | 28 | 238 | 3.2 | 9.7 | 0.00 | 0.00 | 0.00 | 71 | 1016.8 |
| 20260903134507 | 28 | 192 | 3.2 | 9.7 | 0.00 | 0.00 | 0.00 | 72 | 1016.8 |
| 20260903134004 | 28 | 227 | 4.8 | 8.0 | 0.00 | 0.00 | 0.00 | 71 | 1016.8 |
| 20260903133506 | 28 | 226 | 4.8 | 8.0 | 0.00 | 0.00 | 0.00 | 72 | 1016.8 |
| 20260903133010 | 27 | 219 | 3.2 | 8.0 | 0.00 | 0.00 | 0.00 | 73 | 1016.9 |
| 20260903132508 | 27 | 212 | 4.8 | 8.0 | 0.00 | 0.00 | 0.00 | 73 | 1017.0 |
| 20260903132006 | 27 | 218 | 3.2 | 6.4 | 0.00 | 0.00 | 0.00 | 74 | 1017.1 |
| 20260903131514 | 27 | 213 | 3.2 | 8.0 | 0.00 | 0.00 | 0.00 | 74 | 1017.1 |
| 20260903131011 | 27 | 217 | 3.2 | 8.0 | 0.00 | 0.00 | 0.00 | 75 | 1017.1 |
| 20260903130510 | 26 | 236 | 3.2 | 8.0 | 0.00 | 0.00 | 0.00 | 76 | 1017.2 |
| 20260903130026 | 26 | 214 | 1.6 | 6.4 | 0.00 | 0.00 | 0.00 | 77 | 1017.2 |
| 20260903125503 | 26 | 215 | 3.2 | 6.4 | 0.00 | 0.00 | 0.00 | 77 | 1017.2 |
| 20260903125003 | 26 | 205 | 3.2 | 6.4 | 0.00 | 0.00 | 0.00 | 78 | 1017.2 |
| 20260903124505 | 26 | 213 | 3.2 | 4.8 | 0.00 | 0.00 | 0.00 | 79 | 1017.2 |
| 20260903124003 | 25 | 224 | 3.2 | 9.7 | 0.00 | 0.00 | 0.00 | 78 | 1017.2 |
| 20260903123502 | 25 | 210 | 3.2 | 9.7 | 0.00 | 0.00 | 0.00 | 78 | 1017.2 |
| 20260903123008 | 25 | 199 | 4.8 | 8.0 | 0.00 | 0.00 | 0.00 | 79 | 1017.2 |
| 20260903122505 | 25 | 200 | 3.2 | 6.4 | 0.00 | 0.00 | 0.00 | 79 | 1017.1 |
| 20260903122005 | 25 | 205 | 1.6 | 6.4 | 0.00 | 0.00 | 0.00 | 78 | 1017.2 |
| 20260903121516 | 25 | 208 | 3.2 | 6.4 | 0.00 | 0.00 | 0.00 | 78 | 1017.2 |
| 20260903121008 | 25 | 212 | 3.2 | 4.8 | 0.00 | 0.00 | 0.00 | 79 | 1017.2 |
| 20260903120511 | 25 | 207 | 3.2 | 4.8 | 0.00 | 0.00 | 0.00 | 80 | 1017.2 |
| 20260903120024 | 24 | 217 | 1.6 | 3.2 | 0.00 | 0.00 | 0.00 | 80 | 1017.2 |
| 20260903115510 | 24 | 205 | 1.6 | 3.2 | 0.00 | 0.00 | 0.00 | 80 | 1017.1 |
| 20260903115011 | 24 | 214 | 1.6 | 4.8 | 0.00 | 0.00 | 0.00 | 80 | 1017.2 |
| 20260903114504 | 24 | 209 | 1.6 | 4.8 | 0.00 | 0.00 | 0.00 | 80 | 1017.1 |
| 20260903114002 | 24 | 221 | 1.6 | 3.2 | 0.00 | 0.00 | 0.00 | 81 | 1017.1 |
| 20260903113502 | 24 | 221 | 1.6 | 4.8 | 0.00 | 0.00 | 0.00 | 81 | 1017.1 |
| 20260903113019 | 24 | 223 | 1.6 | 4.8 | 0.00 | 0.00 | 0.00 | 81 | 1017.0 |
| 20260903112504 | 24 | 217 | 1.6 | 3.2 | 0.00 | 0.00 | 0.00 | 81 | 1017.0 |
| 20260903112005 | 24 | 210 | 1.6 | 3.2 | 0.00 | 0.00 | 0.00 | 81 | 1016.9 |
| 20260903111511 | 24 | 210 | 1.6 | 3.2 | 0.00 | 0.00 | 0.00 | 80 | 1016.8 |
| 20260903111008 | 24 | 211 | 0.0 | 3.2 | 0.00 | 0.00 | 0.00 | 80 | 1016.8 |
| 20260903110508 | 24 | 211 | 1.6 | 4.8 | 0.00 | 0.00 | 0.00 | 80 | 1016.7 |
| 20260903110044 | 24 | 212 | 0.0 | 4.8 | 0.00 | 0.00 | 0.00 | 80 | 1016.7 |
| 20260903105511 | 24 | 217 | 1.6 | 4.8 | 0.00 | 0.00 | 0.00 | 80 | 1016.7 |
| 20260903105014 | 24 | 213 | 1.6 | 4.8 | 0.00 | 0.00 | 0.00 | 80 | 1016.6 |
| 20260903104526 | 24 | 217 | 1.6 | 3.2 | 0.00 | 0.00 | 0.00 | 80 | 1016.6 |
| 20260903104013 | 24 | 232 | 0.0 | 3.2 | 0.00 | 0.00 | 0.00 | 79 | 1016.5 |
| 20260903103505 | 25 | 209 | 1.6 | 4.8 | 0.00 | 0.00 | 0.00 | 79 | 1016.4 |
| 20260903103007 | 25 | 219 | 1.6 | 4.8 | 0.00 | 0.00 | 0.00 | 79 | 1016.4 |
| 20260903102504 | 25 | 205 | 1.6 | 4.8 | 0.00 | 0.00 | 0.00 | 79 | 1016.4 |
| 20260903102002 | 25 | 224 | 1.6 | 4.8 | 0.00 | 0.00 | 0.00 | 79 | 1016.4 |
| 20260903101511 | 25 | 213 | 1.6 | 3.2 | 0.00 | 0.00 | 0.00 | 78 | 1016.4 |
| 20260903101003 | 25 | 222 | 1.6 | 4.8 | 0.00 | 0.00 | 0.00 | 78 | 1016.3 |
| 20260903100507 | 25 | 206 | 1.6 | 4.8 | 0.00 | 0.00 | 0.00 | 78 | 1016.3 |
| 20260903100016 | 25 | 207 | 1.6 | 3.2 | 0.00 | 0.00 | 0.00 | 78 | 1016.2 |
| 20260903095509 | 25 | 203 | 1.6 | 4.8 | 0.00 | 0.00 | 0.00 | 78 | 1016.2 |
| 20260903095012 | 25 | 214 | 1.6 | 6.4 | 0.00 | 0.00 | 0.00 | 77 | 1016.2 |
| 20260903094544 | 25 | 215 | 1.6 | 6.4 | 0.00 | 0.00 | 0.00 | 77 | 1016.2 |
| 20260903094011 | 25 | 217 | 1.6 | 4.8 | 0.00 | 0.00 | 0.00 | 77 | 1016.2 |
| 20260903093511 | 25 | 217 | 1.6 | 3.2 | 0.00 | 0.00 | 0.00 | 77 | 1016.1 |
| 20260903093033 | 25 | 219 | 1.6 | 3.2 | 0.00 | 0.00 | 0.00 | 76 | 1016.2 |
| 20260903092504 | 25 | 240 | 1.6 | 4.8 | 0.00 | 0.00 | 0.00 | 76 | 1016.2 |
| 20260903092005 | 25 | 211 | 1.6 | 4.8 | 0.00 | 0.00 | 0.00 | 76 | 1016.2 |
| 20260903091510 | 25 | 216 | 1.6 | 8.0 | 0.00 | 0.00 | 0.00 | 76 | 1016.2 |
| 20260903091003 | 25 | 204 | 1.6 | 8.0 | 0.00 | 0.00 | 0.00 | 76 | 1016.3 |
| 20260903090503 | 25 | 206 | 4.8 | 8.0 | 0.00 | 0.00 | 0.00 | 76 | 1016.2 |
| 20260903090014 | 26 | 226 | 1.6 | 6.4 | 0.00 | 0.00 | 0.00 | 76 | 1016.1 |
| 20260903085508 | 26 | 217 | 3.2 | 6.4 | 0.00 | 0.00 | 0.00 | 76 | 1016.1 |
| 20260903085007 | 26 | 208 | 3.2 | 9.7 | 0.00 | 0.00 | 0.00 | 76 | 1016.1 |
| 20260903084523 | 26 | 240 | 3.2 | 9.7 | 0.00 | 0.00 | 0.00 | 76 | 1016.1 |
| 20260903084010 | 26 | 223 | 4.8 | 9.7 | 0.00 | 0.00 | 0.00 | 76 | 1016.1 |
| 20260903083513 | 26 | 205 | 3.2 | 11.3 | 0.00 | 0.00 | 0.00 | 76 | 1016.1 |
| 20260903083026 | 26 | 209 | 4.8 | 11.3 | 0.00 | 0.00 | 0.00 | 76 | 1016.1 |
| 20260903082512 | 26 | 207 | 4.8 | 11.3 | 0.00 | 0.00 | 0.00 | 76 | 1016.1 |
| 20260903082016 | 26 | 236 | 4.8 | 11.3 | 0.00 | 0.00 | 0.00 | 76 | 1016.1 |
| 20260903081504 | 26 | 210 | 4.8 | 8.0 | 0.00 | 0.00 | 0.00 | 76 | 1016.1 |
| 20260903081002 | 26 | 210 | 3.2 | 11.3 | 0.00 | 0.00 | 0.00 | 76 | 1016.1 |
| 20260903080502 | 26 | 221 | 3.2 | 12.9 | 0.00 | 0.00 | 0.00 | 75 | 1016.2 |
| 20260903080011 | 26 | 202 | 6.4 | 12.9 | 0.00 | 0.00 | 0.00 | 75 | 1016.2 |
| 20260903075508 | 26 | 238 | 4.8 | 9.7 | 0.00 | 0.00 | 0.00 | 76 | 1016.1 |
| 20260903075008 | 26 | 226 | 4.8 | 12.9 | 0.00 | 0.00 | 0.00 | 75 | 1016.1 |
| 20260903074518 | 26 | 209 | 3.2 | 12.9 | 0.00 | 0.00 | 0.00 | 75 | 1016.0 |
| 20260903074012 | 26 | 201 | 4.8 | 9.7 | 0.00 | 0.00 | 0.00 | 76 | 1016.0 |
| 20260903073513 | 26 | 188 | 3.2 | 11.3 | 0.00 | 0.00 | 0.00 | 76 | 1016.1 |
| 20260903073027 | 26 | 204 | 4.8 | 11.3 | 0.00 | 0.00 | 0.00 | 76 | 1016.0 |
| 20260903072517 | 26 | 222 | 6.4 | 12.9 | 0.00 | 0.00 | 0.00 | 76 | 1016.0 |
| 20260903072022 | 26 | 196 | 6.4 | 12.9 | 0.00 | 0.00 | 0.00 | 76 | 1016.0 |
| 20260903071534 | 26 | 196 | 4.8 | 11.3 | 0.00 | 0.00 | 0.00 | 76 | 1016.0 |
| 20260903071016 | 26 | 221 | 8.0 | 11.3 | 0.00 | 0.00 | 0.00 | 77 | 1016.0 |
| 20260903070505 | 26 | 202 | 4.8 | 9.7 | 0.00 | 0.00 | 0.00 | 77 | 1016.1 |
| 20260903070007 | 26 | 188 | 4.8 | 8.0 | 0.00 | 0.00 | 0.00 | 78 | 1016.2 |
| 20260903065507 | 26 | 210 | 3.2 | 8.0 | 0.00 | 0.00 | 0.00 | 78 | 1016.2 |
| 20260903065007 | 26 | 200 | 3.2 | 6.4 | 0.00 | 0.00 | 0.00 | 78 | 1016.2 |
| 20260903064516 | 26 | 207 | 4.8 | 6.4 | 0.00 | 0.00 | 0.00 | 78 | 1016.2 |
| 20260903064010 | 25 | 211 | 3.2 | 8.0 | 0.00 | 0.00 | 0.00 | 79 | 1016.2 |
| 20260903063512 | 25 | 183 | 3.2 | 8.0 | 0.00 | 0.00 | 0.00 | 79 | 1016.3 |
| 20260903063023 | 25 | 219 | 3.2 | 6.4 | 0.00 | 0.00 | 0.00 | 79 | 1016.3 |
| 20260903062514 | 25 | 201 | 3.2 | 6.4 | 0.00 | 0.00 | 0.00 | 79 | 1016.3 |
| 20260903062013 | 25 | 201 | 3.2 | 6.4 | 0.00 | 0.00 | 0.00 | 79 | 1016.3 |
| 20260903061537 | 25 | 200 | 3.2 | 6.4 | 0.00 | 0.00 | 0.00 | 79 | 1016.3 |
| 20260903061016 | 26 | 225 | 3.2 | 6.4 | 0.00 | 0.00 | 0.00 | 79 | 1016.3 |
| 20260903060515 | 26 | 204 | 3.2 | 8.0 | 0.00 | 0.00 | 0.00 | 79 | 1016.3 |
| 20260903060030 | 26 | 200 | 1.6 | 8.0 | 0.00 | 0.00 | 0.00 | 79 | 1016.3 |
| 20260903055507 | 26 | 205 | 3.2 | 8.0 | 0.00 | 0.00 | 0.00 | 79 | 1016.3 |
| 20260903055006 | 26 | 205 | 3.2 | 9.7 | 0.00 | 0.00 | 0.00 | 79 | 1016.3 |
| 20260903054536 | 26 | 201 | 3.2 | 9.7 | 0.00 | 0.00 | 0.00 | 79 | 1016.2 |
| 20260903054010 | 26 | 203 | 3.2 | 8.0 | 0.00 | 0.00 | 0.00 | 79 | 1016.3 |
| 20260903053509 | 26 | 203 | 3.2 | 8.0 | 0.00 | 0.00 | 0.00 | 79 | 1016.2 |
| 20260903053030 | 26 | 207 | 3.2 | 6.4 | 0.00 | 0.00 | 0.00 | 79 | 1016.1 |
| 20260903052511 | 26 | 184 | 3.2 | 6.4 | 0.00 | 0.00 | 0.00 | 79 | 1016.1 |
| 20260903052011 | 26 | 193 | 3.2 | 8.0 | 0.00 | 0.00 | 0.00 | 79 | 1016.0 |
| 20260903051506 | 26 | 202 | 4.8 | 8.0 | 0.00 | 0.00 | 0.00 | 79 | 1016.0 |
| 20260903051006 | 26 | 207 | 3.2 | 6.4 | 0.00 | 0.00 | 0.00 | 80 | 1016.0 |
| 20260903050505 | 26 | 209 | 3.2 | 8.0 | 0.00 | 0.00 | 0.00 | 79 | 1015.9 |
| 20260903050009 | 26 | 213 | 3.2 | 8.0 | 0.00 | 0.00 | 0.00 | 79 | 1015.9 |
| 20260903045505 | 26 | 213 | 3.2 | 6.4 | 0.00 | 0.00 | 0.00 | 80 | 1015.8 |
| 20260903045004 | 26 | 219 | 3.2 | 6.4 | 0.00 | 0.00 | 0.00 | 80 | 1015.8 |
| 20260903044512 | 26 | 205 | 3.2 | 6.4 | 0.00 | 0.00 | 0.00 | 80 | 1015.8 |
| 20260903044007 | 26 | 194 | 3.2 | 6.4 | 0.00 | 0.00 | 0.00 | 80 | 1015.7 |
| 20260903043507 | 26 | 213 | 3.2 | 6.4 | 0.00 | 0.00 | 0.00 | 79 | 1015.7 |
| 20260903043016 | 26 | 204 | 3.2 | 8.0 | 0.00 | 0.00 | 0.00 | 79 | 1015.7 |
| 20260903042511 | 26 | 207 | 1.6 | 8.0 | 0.00 | 0.00 | 0.00 | 79 | 1015.6 |
| 20260903042015 | 26 | 215 | 3.2 | 8.0 | 0.00 | 0.00 | 0.00 | 79 | 1015.7 |
| 20260903041528 | 26 | 203 | 1.6 | 8.0 | 0.00 | 0.00 | 0.00 | 79 | 1015.8 |
| 20260903041014 | 26 | 215 | 3.2 | 6.4 | 0.00 | 0.00 | 0.00 | 79 | 1015.7 |
| 20260903040503 | 26 | 208 | 3.2 | 4.8 | 0.00 | 0.00 | 0.00 | 79 | 1015.7 |
| 20260903040004 | 26 | 210 | 3.2 | 4.8 | 0.00 | 0.00 | 0.00 | 79 | 1015.7 |
| 20260903035505 | 26 | 208 | 1.6 | 6.4 | 0.00 | 0.00 | 0.00 | 79 | 1015.8 |
| 20260903035004 | 26 | 210 | 1.6 | 6.4 | 0.00 | 0.00 | 0.00 | 78 | 1015.8 |
| 20260903034511 | 26 | 213 | 3.2 | 6.4 | 0.00 | 0.00 | 0.00 | 78 | 1015.8 |
| 20260903034007 | 26 | 213 | 3.2 | 6.4 | 0.00 | 0.00 | 0.00 | 78 | 1015.9 |
| 20260903033507 | 26 | 217 | 1.6 | 4.8 | 0.00 | 0.00 | 0.00 | 78 | 1015.9 |
| 20260903033017 | 26 | 202 | 3.2 | 4.8 | 0.00 | 0.00 | 0.00 | 78 | 1015.9 |
| 20260903032510 | 26 | 217 | 3.2 | 6.4 | 0.00 | 0.00 | 0.00 | 78 | 1015.9 |
| 20260903032009 | 27 | 223 | 3.2 | 6.4 | 0.00 | 0.00 | 0.00 | 78 | 1016.0 |
| 20260903031523 | 27 | 215 | 3.2 | 8.0 | 0.00 | 0.00 | 0.00 | 78 | 1016.1 |
| 20260903031014 | 27 | 198 | 3.2 | 8.0 | 0.00 | 0.00 | 0.00 | 78 | 1016.1 |
| 20260903030516 | 27 | 155 | 3.2 | 6.4 | 0.00 | 0.00 | 0.00 | 78 | 1016.1 |
| 20260903030039 | 27 | 200 | 3.2 | 4.8 | 0.00 | 0.00 | 0.00 | 78 | 1016.1 |
| 20260903025515 | 27 | 202 | 3.2 | 8.0 | 0.00 | 0.00 | 0.00 | 78 | 1016.1 |
| 20260903025006 | 27 | 216 | 3.2 | 8.0 | 0.00 | 0.00 | 0.00 | 78 | 1016.1 |
| 20260903024510 | 27 | 210 | 1.6 | 6.4 | 0.00 | 0.00 | 0.00 | 78 | 1016.2 |
| 20260903024003 | 27 | 213 | 1.6 | 6.4 | 0.00 | 0.00 | 0.00 | 77 | 1016.2 |
| 20260903023510 | 27 | 212 | 3.2 | 4.8 | 0.00 | 0.00 | 0.00 | 77 | 1016.2 |
| 20260903023015 | 27 | 207 | 3.2 | 4.8 | 0.00 | 0.00 | 0.00 | 77 | 1016.2 |
| 20260903022507 | 27 | 202 | 3.2 | 6.4 | 0.00 | 0.00 | 0.00 | 77 | 1016.2 |
| 20260903022010 | 27 | 211 | 3.2 | 8.0 | 0.00 | 0.00 | 0.00 | 77 | 1016.2 |
| 20260903021525 | 27 | 217 | 3.2 | 8.0 | 0.00 | 0.00 | 0.00 | 77 | 1016.3 |
| 20260903021013 | 27 | 213 | 3.2 | 8.0 | 0.00 | 0.00 | 0.00 | 77 | 1016.3 |
| 20260903020511 | 27 | 199 | 3.2 | 6.4 | 0.00 | 0.00 | 0.00 | 77 | 1016.2 |
| 20260903020031 | 27 | 223 | 3.2 | 6.4 | 0.00 | 0.00 | 0.00 | 77 | 1016.2 |
| 20260903015514 | 27 | 209 | 1.6 | 4.8 | 0.00 | 0.00 | 0.00 | 77 | 1016.2 |
| 20260903015016 | 27 | 202 | 1.6 | 4.8 | 0.00 | 0.00 | 0.00 | 78 | 1016.2 |
| 20260903014533 | 27 | 208 | 1.6 | 4.8 | 0.00 | 0.00 | 0.00 | 77 | 1016.1 |
| 20260903014004 | 27 | 207 | 1.6 | 6.4 | 0.00 | 0.00 | 0.00 | 77 | 1016.1 |
| 20260903013504 | 27 | 199 | 1.6 | 6.4 | 0.00 | 0.00 | 0.00 | 77 | 1016.0 |
| 20260903013011 | 27 | 203 | 1.6 | 4.8 | 0.00 | 0.00 | 0.00 | 77 | 1015.9 |
| 20260903012503 | 27 | 211 | 1.6 | 4.8 | 0.00 | 0.00 | 0.00 | 77 | 1016.0 |
| 20260903012009 | 27 | 213 | 1.6 | 4.8 | 0.00 | 0.00 | 0.00 | 77 | 1015.9 |
| 20260903011532 | 27 | 202 | 1.6 | 3.2 | 0.00 | 0.00 | 0.00 | 78 | 1015.9 |
| 20260903011011 | 27 | 209 | 0.0 | 3.2 | 0.00 | 0.00 | 0.00 | 78 | 1015.9 |
| 20260903010511 | 27 | 209 | 0.0 | 3.2 | 0.00 | 0.00 | 0.00 | 78 | 1015.8 |
| 20260903010024 | 27 | 209 | 1.6 | 3.2 | 0.00 | 0.00 | 0.00 | 77 | 1015.8 |
| 20260903005511 | 27 | 209 | 0.0 | 3.2 | 0.00 | 0.00 | 0.00 | 77 | 1015.8 |
| 20260903005016 | 27 | 209 | 0.0 | 3.2 | 0.00 | 0.00 | 0.00 | 77 | 1015.8 |
| 20260903004533 | 28 | 209 | 0.0 | 3.2 | 0.00 | 0.00 | 0.00 | 77 | 1015.7 |
| 20260903004016 | 28 | 209 | 0.0 | 3.2 | 0.00 | 0.00 | 0.00 | 76 | 1015.6 |
| 20260903003516 | 28 | 209 | 0.0 | 3.2 | 0.00 | 0.00 | 0.00 | 76 | 1015.6 |
| 20260903003008 | 28 | 209 | 0.0 | 3.2 | 0.00 | 0.00 | 0.00 | 75 | 1015.6 |
| 20260903002508 | 28 | 209 | 0.0 | 3.2 | 0.00 | 0.00 | 0.00 | 75 | 1015.5 |
| 20260903002007 | 28 | 209 | 0.0 | 3.2 | 0.00 | 0.00 | 0.00 | 73 | 1015.6 |
| 20260903001515 | 29 | 209 | 0.0 | 3.2 | 0.00 | 0.00 | 0.00 | 73 | 1015.6 |
| 20260903001009 | 29 | 209 | 0.0 | 3.2 | 0.00 | 0.00 | 0.00 | 72 | 1015.6 |
| 20260903000507 | 30 | 209 | 0.0 | 3.2 | 0.00 | 0.00 | 0.00 | 72 | 1015.5 |
| 20260903000020 | 30 | 209 | 0.0 | 3.2 | 0.00 | 0.00 | 0.00 | 71 | 1015.5 |
| 20260902235513 | 30 | 201 | 0.0 | 3.2 | 0.00 | 0.00 | 0.00 | 70 | 1015.5 |
| 20260902235015 | 30 | 205 | 0.0 | 3.2 | 0.00 | 0.00 | 0.00 | 69 | 1015.5 |
| 20260902234529 | 30 | 196 | 1.6 | 4.8 | 0.00 | 0.00 | 0.00 | 69 | 1015.5 |
| 20260902234014 | 30 | 212 | 1.6 | 4.8 | 0.00 | 0.00 | 0.00 | 68 | 1015.5 |
| 20260902233513 | 31 | 204 | 1.6 | 4.8 | 0.00 | 0.00 | 0.00 | 68 | 1015.5 |
| 20260902233037 | 31 | 209 | 3.2 | 6.4 | 0.00 | 0.00 | 0.00 | 67 | 1015.5 |
| 20260902232516 | 31 | 199 | 3.2 | 8.0 | 0.00 | 0.00 | 0.00 | 67 | 1015.5 |
| 20260902232007 | 31 | 223 | 4.8 | 8.0 | 0.00 | 0.00 | 0.00 | 65 | 1015.4 |
| 20260902231516 | 31 | 200 | 3.2 | 8.0 | 0.00 | 0.00 | 0.00 | 65 | 1015.4 |
| 20260902231007 | 32 | 232 | 4.8 | 8.0 | 0.00 | 0.00 | 0.00 | 65 | 1015.4 |
| 20260902230508 | 32 | 223 | 4.8 | 8.0 | 0.00 | 0.00 | 0.00 | 65 | 1015.4 |
| 20260902230021 | 32 | 200 | 3.2 | 8.0 | 0.00 | 0.00 | 0.00 | 64 | 1015.4 |
| 20260902225511 | 32 | 200 | 3.2 | 9.7 | 0.00 | 0.00 | 0.00 | 64 | 1015.4 |
| 20260902225013 | 32 | 208 | 3.2 | 9.7 | 0.00 | 0.00 | 0.00 | 63 | 1015.4 |
| 20260902224525 | 32 | 204 | 4.8 | 11.3 | 0.00 | 0.00 | 0.00 | 63 | 1015.4 |
| 20260902224018 | 32 | 200 | 4.8 | 12.9 | 0.00 | 0.00 | 0.00 | 63 | 1015.4 |